Hourly Data Report for July 16, 2016

TORONTO CITY
ONTARIO

43°40'00.000" N
79°24'00.000" W
112.50 m
6158355
71508
XTO

Download Data

Hourly Data (July 2016)
Hourly Data Report for July 16, 2016
TIME
LST
Temp Definition
°C
Dew Point Definition
°C
Rel Hum Definition
%
Precip. Amount Definition
mm

Wind Dir Definition
10's deg

Wind Spd Definition
km/h
Visibility Definition
km
Stn Press Definition
kPa
Hmdx Definition


Wind Chill Definition


Weather Definition


00:00 17.2 11.7 70 0.0 LegendMM LegendMM   100.29     LegendNANA
01:00 16.9 11.5 71 0.0 LegendMM LegendMM   100.26     LegendNANA
02:00 16.9 11.5 70 0.0 LegendMM LegendMM   100.28     LegendNANA
03:00 16.6 11.1 70 0.0 LegendMM LegendMM   100.30     LegendNANA
04:00 16.3 10.9 70 0.0 LegendMM LegendMM   100.33     LegendNANA
05:00 16.1 10.7 70 0.0 LegendMM LegendMM   100.38     LegendNANA
06:00 15.5 10.2 71 0.0 LegendMM LegendMM   100.45     LegendNANA
07:00 15.7 10.1 69 0.0 LegendMM LegendMM   100.46     LegendNANA
08:00 16.5 11.1 70 0.0 LegendMM LegendMM   100.53     LegendNANA
09:00 16.8 10.8 68 0.0 LegendMM LegendMM   100.56     LegendNANA
10:00 18.4 11.6 65 0.0 LegendMM LegendMM   100.59     LegendNANA
11:00 20.2 12.5 61 0.0 LegendMM LegendMM   100.60     LegendNANA
12:00 20.7 12.4 59 0.0 LegendMM LegendMM   100.59     LegendNANA
13:00 20.1 11.6 58 0.0 LegendMM LegendMM   100.61     LegendNANA
14:00 20.9 12.3 58 0.0 LegendMM LegendMM   100.57     LegendNANA
15:00 19.9 12.1 61 0.0 LegendMM LegendMM   100.56     LegendNANA
16:00 20.5 11.9 58 0.0 LegendMM LegendMM   100.51     LegendNANA
17:00 21.3 12.4 57 0.0 LegendMM LegendMM   100.46     LegendNANA
18:00 21.5 11.4 53 0.0 LegendMM LegendMM   100.44     LegendNANA
19:00 20.5 12.2 59 0.0 LegendMM LegendMM   100.49     LegendNANA
20:00 19.4 12.3 64 0.0 LegendMM LegendMM   100.53     LegendNANA
21:00 19.2 11.7 62 0.0 LegendMM LegendMM   100.58     LegendNANA
22:00 19.3 12.0 63 0.0 LegendMM LegendMM   100.61     LegendNANA
23:00 17.9 12.5 71 0.0 LegendMM LegendMM   100.59     LegendNANA

Notes on Data Quality.

Legend

  • E = Estimated
  • M = Missing
  • NA = Not Available*
  • [empty] = Indicates an unobserved value
Date modified: